SIT-2086

Last updated on Tue Aug 25 2026 00:03:14 GMT+0000 (Coordinated Universal Time)

1 61764U 24199AF 26236.64552611 .00043736 00000+0 58476-3 0 9993 2 61764 97.2815 114.2857 0006487 32.3937 327.7716 15.57899488145072
UTC large
Height (km)
Speed (km/s)
/
Latitude / Longitude
Inclination (degrees)
Orbital Period (minutes)
Azimuth
Elevation
Range (km)
Doppler Factor

Next 0 passes for location: London (51.5072 / 0.1276)

No passes found over London.
SIT-2086